Location: Moscow
(30.9132°N, 94.8252°W)
Time: 05:57:11
(UTC+00:00)

Aureole 3 Rocket - Pass Details

Date: 15 November 2025
Orbit: 397 x 1691 km, 82.5° (Epoch: 04 December)

Event Time Altitude Azimuth Distance (km) Brightness Sun altitude
Rises 00:23:33 0° 188° (S) 2,635 6.6 -13.5°
Reaches altitude 10° 00:25:50 10° 189° (S) 1,629 5.5 -13.9°
Maximum altitude 00:29:14 77° 277° (W) 436 2.4 -14.6°
Drops below altitude 10° 00:32:15 10° 3° (N) 1,451 4.8 -15.3°
Enters shadow 00:33:26 - 4° (N) 1,976 5.5 -15.5°
